| time (UTC) | temp C | wind direction | speed KPH | gust KPH | rain 1hr cm | rain 24hr cm | rain mn cm | humidity % | barometer mb |
| 20260509043849 | 9 | 134 | 0.0 | 3.2 | 0.05 | 0.03 | 0.03 | 92 | 1013.7 |
| 20260509043344 | 9 | 258 | 0.0 | 3.2 | 0.05 | 0.03 | 0.03 | 91 | 1013.8 |
| 20260509042840 | 10 | 182 | 1.6 | 3.2 | 0.00 | 0.00 | 0.00 | 90 | 1014.1 |
| 20260509042337 | 10 | 103 | 0.0 | 3.2 | 0.05 | 0.00 | 0.00 | 89 | 1013.9 |
| 20260509041834 | 10 | 201 | 3.2 | 3.2 | 0.05 | 0.00 | 0.00 | 88 | 1014.0 |
| 20260509041331 | 10 | 91 | 0.0 | 3.2 | 0.00 | 0.00 | 0.00 | 87 | 1014.1 |
| 20260509040829 | 10 | 125 | 1.6 | 3.2 | 0.00 | 0.00 | 0.00 | 86 | 1013.9 |
| 20260509040327 | 10 | 267 | 1.6 | 4.8 | 0.05 | 0.00 | 0.00 | 85 | 1014.0 |
| 20260509035823 | 10 | 134 | 0.0 | 4.8 | 0.00 | 0.00 | 0.00 | 85 | 1014.0 |
| 20260509035321 | 10 | 277 | 0.0 | 4.8 | 0.00 | 0.00 | 0.00 | 85 | 1014.0 |
| 20260509034816 | 10 | 246 | 0.0 | 3.2 | 0.00 | 0.00 | 0.00 | 85 | 1014.0 |
| 20260509034314 | 10 | 293 | 0.0 | 3.2 | 0.00 | 0.00 | 0.00 | 84 | 1013.8 |
| 20260509033811 | 10 | 258 | 1.6 | 4.8 | 0.00 | 0.00 | 0.00 | 85 | 1013.8 |
| 20260509033308 | 10 | 289 | 3.2 | 4.8 | 0.00 | 0.00 | 0.00 | 86 | 1013.7 |
| 20260509032805 | 10 | 18 | 1.6 | 3.2 | 0.00 | 0.00 | 0.00 | 84 | 1013.5 |
| 20260509032306 | 10 | 293 | 1.6 | 3.2 | 0.00 | 0.00 | 0.00 | 84 | 1013.7 |
| 20260509031800 | 10 | 32 | 0.0 | 4.8 | 0.00 | 0.00 | 0.00 | 82 | 1013.7 |
| 20260509031257 | 10 | 265 | 0.0 | 3.2 | 0.00 | 0.00 | 0.00 | 80 | 1013.7 |
| 20260509030755 | 10 | 134 | 1.6 | 3.2 | 0.00 | 0.00 | 0.00 | 85 | 1014.0 |
| 20260509030253 | 10 | 277 | 3.2 | 3.2 | 0.00 | 0.00 | 0.00 | 87 | 1014.0 |
| 20260509025749 | 10 | 286 | 3.2 | 4.8 | 0.00 | 0.00 | 0.00 | 86 | 1013.9 |
| 20260509025245 | 10 | 203 | 0.0 | 3.2 | 0.00 | 0.00 | 0.00 | 81 | 1013.8 |
| 20260509024740 | 10 | 103 | 0.0 | 3.2 | 0.00 | 0.00 | 0.00 | 78 | 1013.9 |
| 20260509024236 | 10 | 186 | 1.6 | 1.6 | 0.00 | 0.00 | 0.00 | 76 | 1014.0 |
| 20260509023734 | 11 | 212 | 0.0 | 3.2 | 0.00 | 0.00 | 0.00 | 77 | 1014.0 |
| 20260509023230 | 11 | 242 | 3.2 | 3.2 | 0.00 | 0.00 | 0.00 | 76 | 1014.1 |
| 20260509022727 | 11 | 253 | 0.0 | 3.2 | 0.00 | 0.00 | 0.00 | 75 | 1014.2 |
| 20260509022225 | 10 | 304 | 0.0 | 3.2 | 0.00 | 0.00 | 0.00 | 77 | 1014.1 |
| 20260509021721 | 10 | 247 | 1.6 | 3.2 | 0.00 | 0.00 | 0.00 | 80 | 1013.9 |
| 20260509021218 | 10 | 297 | 0.0 | 3.2 | 0.00 | 0.00 | 0.00 | 85 | 1013.7 |
| 20260509020717 | 10 | 310 | 0.0 | 1.6 | 0.00 | 0.00 | 0.00 | 81 | 1013.8 |
| 20260509020213 | 11 | 287 | 0.0 | 1.6 | 0.00 | 0.00 | 0.00 | 83 | 1013.7 |
| 20260509015712 | 11 | 245 | 0.0 | 1.6 | 0.00 | 0.00 | 0.00 | 78 | 1013.8 |
| 20260509015209 | 11 | 303 | 1.6 | 1.6 | 0.00 | 0.00 | 0.00 | 77 | 1013.7 |
| 20260509014705 | 11 | 247 | 0.0 | 1.6 | 0.00 | 0.00 | 0.00 | 75 | 1013.8 |
| 20260509014202 | 11 | 89 | 0.0 | 0.0 | 0.00 | 0.00 | 0.00 | 72 | 1013.7 |
| 20260509013659 | 11 | 109 | 0.0 | 3.2 | 0.00 | 0.00 | 0.00 | 75 | 1013.9 |
| 20260509013155 | 11 | 256 | 0.0 | 3.2 | 0.00 | 0.00 | 0.00 | 72 | 1013.7 |
| 20260509012651 | 12 | 113 | 0.0 | 1.6 | 0.00 | 0.00 | 0.00 | 69 | 1013.6 |
| 20260509012149 | 12 | 310 | 0.0 | 6.4 | 0.00 | 0.00 | 0.00 | 69 | 1013.5 |
| 20260509011646 | 12 | 89 | 0.0 | 1.6 | 0.00 | 0.00 | 0.00 | 68 | 1013.3 |
| 20260509011143 | 12 | 129 | 0.0 | 1.6 | 0.00 | 0.00 | 0.00 | 67 | 1013.2 |
| 20260509010641 | 12 | 161 | 0.0 | 1.6 | 0.00 | 0.00 | 0.00 | 67 | 1013.3 |
| 20260509010138 | 12 | 230 | 0.0 | 3.2 | 0.00 | 0.00 | 0.00 | 68 | 1013.3 |
| 20260509005635 | 12 | 28 | 0.0 | 4.8 | 0.00 | 0.00 | 0.00 | 66 | 1013.0 |
| 20260509005131 | 12 | 107 | 3.2 | 3.2 | 0.00 | 0.00 | 0.00 | 68 | 1012.8 |
| 20260509004627 | 12 | 195 | 0.0 | 4.8 | 0.00 | 0.00 | 0.00 | 67 | 1013.0 |
| 20260509004124 | 12 | 129 | 3.2 | 3.2 | 0.00 | 0.00 | 0.00 | 67 | 1013.0 |
| 20260509003623 | 12 | 227 | 0.0 | 1.6 | 0.00 | 0.00 | 0.00 | 68 | 1013.2 |
| 20260509003120 | 12 | 177 | 0.0 | 3.2 | 0.00 | 0.00 | 0.00 | 67 | 1013.0 |
| 20260509002617 | 12 | 161 | 0.0 | 4.8 | 0.00 | 0.00 | 0.00 | 66 | 1013.0 |
| 20260509002114 | 12 | 254 | 0.0 | 6.4 | 0.00 | 0.00 | 0.00 | 67 | 1013.0 |
| 20260509001612 | 12 | 248 | 0.0 | 4.8 | 0.00 | 0.00 | 0.00 | 66 | 1013.1 |
| 20260509001107 | 12 | 237 | 1.6 | 4.8 | 0.00 | 0.00 | 0.00 | 65 | 1013.2 |
| 20260509000606 | 12 | 109 | 1.6 | 3.2 | 0.00 | 0.00 | 0.00 | 67 | 1013.0 |
| 20260508235559 | 12 | 260 | 1.6 | 3.2 | 0.00 | 0.00 | 0.00 | 66 | 1012.9 |
| 20260508235055 | 12 | 145 | 1.6 | 8.0 | 0.00 | 0.00 | 0.00 | 69 | 1012.8 |
| 20260508234553 | 12 | 250 | 1.6 | 4.8 | 0.00 | 0.00 | 0.00 | 69 | 1012.8 |
| 20260508234050 | 12 | 134 | 1.6 | 3.2 | 0.00 | 0.00 | 0.00 | 70 | 1012.9 |
| 20260508233549 | 12 | 246 | 0.0 | 6.4 | 0.00 | 0.00 | 0.00 | 69 | 1012.8 |
| 20260508233046 | 12 | 230 | 0.0 | 3.2 | 0.00 | 0.00 | 0.00 | 70 | 1012.7 |
| 20260508232543 | 12 | 231 | 3.2 | 3.2 | 0.00 | 0.00 | 0.00 | 70 | 1012.6 |
| 20260508232040 | 12 | 231 | 3.2 | 3.2 | 0.00 | 0.00 | 0.00 | 71 | 1012.5 |
| 20260508231537 | 12 | 219 | 0.0 | 3.2 | 0.00 | 0.00 | 0.00 | 70 | 1012.4 |
| 20260508231034 | 12 | 237 | 0.0 | 3.2 | 0.00 | 0.00 | 0.00 | 69 | 1012.5 |
| 20260508230531 | 13 | 286 | 0.0 | 4.8 | 0.00 | 0.00 | 0.00 | 67 | 1012.4 |
| 20260508230027 | 13 | 180 | 1.6 | 9.7 | 0.00 | 0.00 | 0.00 | 67 | 1012.3 |
| 20260508225526 | 13 | 275 | 1.6 | 14.5 | 0.00 | 0.00 | 0.00 | 68 | 1012.5 |
| 20260508225022 | 12 | 263 | 1.6 | 3.2 | 0.00 | 0.00 | 0.00 | 67 | 1012.4 |
| 20260508224520 | 12 | 211 | 1.6 | 4.8 | 0.00 | 0.00 | 0.00 | 68 | 1012.4 |
| 20260508224016 | 12 | 147 | 3.2 | 3.2 | 0.00 | 0.00 | 0.00 | 68 | 1012.5 |
| 20260508223514 | 13 | 187 | 3.2 | 4.8 | 0.00 | 0.00 | 0.00 | 67 | 1012.2 |
| 20260508223011 | 13 | 210 | 3.2 | 6.4 | 0.00 | 0.00 | 0.00 | 66 | 1012.4 |
| 20260508222509 | 13 | 140 | 0.0 | 3.2 | 0.00 | 0.00 | 0.00 | 66 | 1012.4 |
| 20260508222005 | 13 | 229 | 0.0 | 4.8 | 0.00 | 0.00 | 0.00 | 64 | 1012.5 |
| 20260508221501 | 12 | 135 | 0.0 | 3.2 | 0.00 | 0.00 | 0.00 | 65 | 1012.3 |
| 20260508220957 | 12 | 108 | 3.2 | 6.4 | 0.00 | 0.00 | 0.00 | 66 | 1012.5 |
| 20260508220454 | 12 | 186 | 1.6 | 6.4 | 0.00 | 0.00 | 0.00 | 68 | 1012.8 |
| 20260508215950 | 12 | 223 | 3.2 | 6.4 | 0.00 | 0.00 | 0.00 | 66 | 1012.9 |
| 20260508215447 | 12 | 85 | 3.2 | 3.2 | 0.00 | 0.00 | 0.00 | 72 | 1012.7 |
| 20260508214944 | 12 | 233 | 0.0 | 3.2 | 0.00 | 0.00 | 0.00 | 67 | 1012.8 |
| 20260508214442 | 12 | 140 | 1.6 | 3.2 | 0.00 | 0.00 | 0.00 | 68 | 1012.8 |
| 20260508213938 | 12 | 139 | 4.8 | 4.8 | 0.00 | 0.00 | 0.00 | 67 | 1012.7 |
| 20260508213435 | 12 | 114 | 1.6 | 4.8 | 0.00 | 0.00 | 0.00 | 71 | 1012.7 |
| 20260508212931 | 12 | 215 | 0.0 | 3.2 | 0.00 | 0.00 | 0.00 | 69 | 1012.8 |
| 20260508212428 | 12 | 227 | 0.0 | 3.2 | 0.00 | 0.00 | 0.00 | 69 | 1012.6 |
| 20260508211923 | 12 | 170 | 1.6 | 6.4 | 0.00 | 0.00 | 0.00 | 67 | 1012.6 |
| 20260508211419 | 12 | 263 | 4.8 | 8.0 | 0.00 | 0.00 | 0.00 | 65 | 1012.5 |
| 20260508210917 | 13 | 186 | 3.2 | 9.7 | 0.00 | 0.00 | 0.00 | 63 | 1012.4 |
| 20260508210413 | 14 | 238 | 4.8 | 9.7 | 0.00 | 0.00 | 0.00 | 59 | 1012.2 |
| 20260508205909 | 15 | 268 | 3.2 | 4.8 | 0.00 | 0.00 | 0.00 | 57 | 1012.0 |
| 20260508205407 | 15 | 133 | 3.2 | 9.7 | 0.00 | 0.00 | 0.00 | 57 | 1012.0 |
| 20260508204902 | 15 | 150 | 1.6 | 4.8 | 0.00 | 0.00 | 0.00 | 58 | 1011.9 |
| 20260508204400 | 15 | 241 | 0.0 | 3.2 | 0.00 | 0.00 | 0.00 | 57 | 1011.9 |
| 20260508203855 | 15 | 119 | 1.6 | 4.8 | 0.00 | 0.00 | 0.00 | 57 | 1012.3 |
| 20260508203352 | 15 | 59 | 1.6 | 4.8 | 0.00 | 0.00 | 0.00 | 55 | 1011.9 |
| 20260508202847 | 15 | 152 | 3.2 | 4.8 | 0.00 | 0.00 | 0.00 | 53 | 1011.9 |
| 20260508202345 | 15 | 126 | 3.2 | 4.8 | 0.00 | 0.00 | 0.00 | 50 | 1011.9 |
| 20260508201842 | 16 | 121 | 6.4 | 6.4 | 0.00 | 0.00 | 0.00 | 50 | 1011.9 |
| 20260508201339 | 16 | 111 | 0.0 | 9.7 | 0.00 | 0.00 | 0.00 | 51 | 1011.9 |
| 20260508200835 | 16 | 239 | 4.8 | 4.8 | 0.00 | 0.00 | 0.00 | 49 | 1012.1 |
| 20260508200332 | 16 | 237 | 3.2 | 3.2 | 0.00 | 0.00 | 0.00 | 51 | 1012.2 |
| 20260508195828 | 16 | 144 | 1.6 | 3.2 | 0.00 | 0.00 | 0.00 | 50 | 1012.5 |
| 20260508195325 | 17 | 112 | 3.2 | 4.8 | 0.00 | 0.00 | 0.00 | 47 | 1012.4 |
| 20260508194821 | 17 | 250 | 3.2 | 4.8 | 0.00 | 0.00 | 0.00 | 47 | 1012.6 |
| 20260508194319 | 17 | 180 | 1.6 | 4.8 | 0.00 | 0.00 | 0.00 | 46 | 1012.6 |
| 20260508193816 | 16 | 173 | 1.6 | 9.7 | 0.00 | 0.00 | 0.00 | 47 | 1012.5 |
| 20260508193313 | 18 | 94 | 3.2 | 6.4 | 0.00 | 0.00 | 0.00 | 47 | 1012.9 |
| 20260508192809 | 17 | 105 | 4.8 | 4.8 | 0.00 | 0.00 | 0.00 | 46 | 1012.7 |
| 20260508192306 | 15 | 216 | 4.8 | 6.4 | 0.00 | 0.00 | 0.00 | 51 | 1012.6 |
| 20260508191803 | 16 | 190 | 3.2 | 6.4 | 0.00 | 0.00 | 0.00 | 53 | 1012.6 |
| 20260508191300 | 16 | 213 | 1.6 | 6.4 | 0.00 | 0.00 | 0.00 | 50 | 1012.6 |
| 20260508190757 | 16 | 237 | 6.4 | 8.0 | 0.00 | 0.00 | 0.00 | 51 | 1012.7 |
| 20260508190253 | 16 | 275 | 0.0 | 8.0 | 0.00 | 0.00 | 0.00 | 49 | 1012.8 |
| 20260508185749 | 16 | 261 | 3.2 | 6.4 | 0.00 | 0.00 | 0.00 | 52 | 1013.0 |
| 20260508185247 | 16 | 217 | 3.2 | 6.4 | 0.00 | 0.00 | 0.00 | 51 | 1013.1 |
| 20260508184744 | 16 | 248 | 3.2 | 4.8 | 0.00 | 0.00 | 0.00 | 51 | 1013.0 |
| 20260508184241 | 15 | 236 | 3.2 | 16.1 | 0.00 | 0.00 | 0.00 | 59 | 1013.0 |
| 20260508183738 | 15 | 98 | 6.4 | 12.9 | 0.00 | 0.00 | 0.00 | 55 | 1013.2 |
| 20260508183234 | 13 | 223 | 4.8 | 12.9 | 0.00 | 0.00 | 0.00 | 59 | 1013.2 |
| 20260508182730 | 12 | 293 | 0.0 | 9.7 | 0.00 | 0.00 | 0.00 | 62 | 1013.4 |
| 20260508182227 | 13 | 215 | 1.6 | 9.7 | 0.00 | 0.00 | 0.00 | 59 | 1013.6 |
| 20260508181723 | 14 | 205 | 3.2 | 16.1 | 0.00 | 0.00 | 0.00 | 53 | 1013.6 |
| 20260508181220 | 14 | 197 | 1.6 | 4.8 | 0.00 | 0.00 | 0.00 | 54 | 1013.6 |
| 20260508180717 | 14 | 176 | 0.0 | 6.4 | 0.00 | 0.00 | 0.00 | 54 | 1013.3 |
| 20260508180214 | 14 | 41 | 3.2 | 3.2 | 0.00 | 0.00 | 0.00 | 51 | 1013.0 |
| 20260508175710 | 15 | 85 | 4.8 | 6.4 | 0.00 | 0.00 | 0.00 | 49 | 1013.1 |
| 20260508175207 | 16 | 211 | 4.8 | 6.4 | 0.00 | 0.00 | 0.00 | 48 | 1013.0 |
| 20260508174705 | 16 | 248 | 6.4 | 9.7 | 0.00 | 0.00 | 0.00 | 46 | 1013.1 |
| 20260508174201 | 15 | 276 | 4.8 | 11.3 | 0.00 | 0.00 | 0.00 | 47 | 1013.1 |
| 20260508173658 | 16 | 148 | 0.0 | 4.8 | 0.00 | 0.00 | 0.00 | 47 | 1013.2 |
| 20260508173154 | 15 | 73 | 0.0 | 9.7 | 0.00 | 0.00 | 0.00 | 50 | 1013.2 |
| 20260508172652 | 15 | 120 | 6.4 | 8.0 | 0.00 | 0.00 | 0.00 | 47 | 1013.4 |
| 20260508172148 | 15 | 159 | 1.6 | 6.4 | 0.00 | 0.00 | 0.00 | 50 | 1013.4 |
| 20260508171645 | 15 | 242 | 3.2 | 8.0 | 0.00 | 0.00 | 0.00 | 51 | 1013.3 |
| 20260508171141 | 14 | 278 | 0.0 | 4.8 | 0.00 | 0.00 | 0.00 | 52 | 1013.6 |
| 20260508170638 | 15 | 233 | 4.8 | 4.8 | 0.00 | 0.00 | 0.00 | 50 | 1013.4 |
| 20260508170136 | 14 | 224 | 3.2 | 9.7 | 0.00 | 0.00 | 0.00 | 51 | 1013.5 |
| 20260508165633 | 15 | 123 | 3.2 | 6.4 | 0.00 | 0.00 | 0.00 | 49 | 1013.4 |
| 20260508165130 | 15 | 209 | 0.0 | 14.5 | 0.00 | 0.00 | 0.00 | 47 | 1013.4 |
| 20260508164626 | 15 | 130 | 3.2 | 6.4 | 0.00 | 0.00 | 0.00 | 47 | 1013.4 |
| 20260508164123 | 16 | 153 | 4.8 | 8.0 | 0.00 | 0.00 | 0.00 | 47 | 1013.3 |
| 20260508163621 | 17 | 144 | 3.2 | 6.4 | 0.00 | 0.00 | 0.00 | 53 | 1013.4 |
| 20260508163117 | 16 | 153 | 3.2 | 9.7 | 0.00 | 0.00 | 0.00 | 46 | 1013.1 |
| 20260508162614 | 15 | 252 | 3.2 | 9.7 | 0.00 | 0.00 | 0.00 | 47 | 1013.3 |
| 20260508162111 | 16 | 244 | 8.0 | 19.3 | 0.00 | 0.00 | 0.00 | 46 | 1013.4 |
| 20260508161608 | 15 | 173 | 1.6 | 6.4 | 0.00 | 0.00 | 0.00 | 48 | 1013.4 |
| 20260508161106 | 15 | 286 | 3.2 | 12.9 | 0.00 | 0.00 | 0.00 | 47 | 1013.6 |
| 20260508160604 | 15 | 258 | 4.8 | 6.4 | 0.00 | 0.00 | 0.00 | 47 | 1013.8 |
| 20260508160100 | 15 | 236 | 3.2 | 9.7 | 0.00 | 0.00 | 0.00 | 48 | 1013.6 |
| 20260508155557 | 15 | 259 | 8.0 | 8.0 | 0.00 | 0.00 | 0.00 | 47 | 1013.6 |
| 20260508155054 | 14 | 221 | 0.0 | 11.3 | 0.00 | 0.00 | 0.00 | 46 | 1013.6 |
| 20260508154551 | 15 | 254 | 8.0 | 12.9 | 0.00 | 0.00 | 0.00 | 48 | 1013.4 |
| 20260508154048 | 15 | 173 | 0.0 | 6.4 | 0.00 | 0.00 | 0.00 | 49 | 1013.5 |
| 20260508153545 | 15 | 248 | 8.0 | 9.7 | 0.00 | 0.00 | 0.00 | 49 | 1013.6 |
| 20260508153041 | 15 | 256 | 1.6 | 8.0 | 0.00 | 0.00 | 0.00 | 49 | 1013.5 |
| 20260508152539 | 14 | 101 | 3.2 | 4.8 | 0.00 | 0.00 | 0.00 | 49 | 1013.6 |
| 20260508152034 | 13 | 139 | 0.0 | 4.8 | 0.00 | 0.00 | 0.00 | 50 | 1013.7 |
| 20260508151531 | 14 | 227 | 3.2 | 4.8 | 0.00 | 0.00 | 0.00 | 53 | 1013.6 |
| 20260508151027 | 15 | 224 | 1.6 | 3.2 | 0.00 | 0.00 | 0.00 | 51 | 1013.6 |
| 20260508150525 | 14 | 240 | 4.8 | 6.4 | 0.00 | 0.00 | 0.00 | 50 | 1013.6 |
| 20260508150020 | 14 | 123 | 3.2 | 6.4 | 0.00 | 0.00 | 0.00 | 54 | 1013.7 |
| 20260508145518 | 14 | 214 | 6.4 | 6.4 | 0.00 | 0.00 | 0.00 | 52 | 1013.6 |
| 20260508145009 | 14 | 252 | 8.0 | 12.9 | 0.00 | 0.00 | 0.00 | 51 | 1013.7 |
| 20260508144506 | 13 | 181 | 1.6 | 6.4 | 0.00 | 0.00 | 0.00 | 54 | 1013.7 |
| 20260508144004 | 13 | 213 | 6.4 | 8.0 | 0.00 | 0.00 | 0.00 | 54 | 1013.8 |
| 20260508143501 | 13 | 259 | 4.8 | 4.8 | 0.00 | 0.00 | 0.00 | 54 | 1013.9 |
| 20260508142957 | 13 | 130 | 3.2 | 4.8 | 0.00 | 0.00 | 0.00 | 52 | 1013.7 |
| 20260508142455 | 13 | 250 | 4.8 | 16.1 | 0.00 | 0.00 | 0.00 | 54 | 1013.7 |
| 20260508141950 | 12 | 268 | 3.2 | 8.0 | 0.00 | 0.00 | 0.00 | 57 | 1013.7 |
| 20260508141447 | 13 | 297 | 0.0 | 4.8 | 0.00 | 0.00 | 0.00 | 56 | 1013.8 |
| 20260508140945 | 12 | 121 | 3.2 | 6.4 | 0.00 | 0.00 | 0.00 | 55 | 1013.6 |
| 20260508140442 | 12 | 88 | 1.6 | 6.4 | 0.00 | 0.00 | 0.00 | 56 | 1013.6 |
| 20260508135937 | 12 | 193 | 0.0 | 6.4 | 0.00 | 0.00 | 0.00 | 62 | 1013.8 |
| 20260508135434 | 11 | 149 | 0.0 | 4.8 | 0.00 | 0.00 | 0.00 | 62 | 1013.9 |
| 20260508134931 | 11 | 216 | 1.6 | 6.4 | 0.00 | 0.00 | 0.00 | 65 | 1014.0 |
| 20260508134427 | 11 | 253 | 4.8 | 6.4 | 0.00 | 0.00 | 0.00 | 64 | 1014.2 |
| 20260508133924 | 10 | 100 | 3.2 | 6.4 | 0.00 | 0.00 | 0.00 | 60 | 1014.0 |
| 20260508133422 | 10 | 136 | 3.2 | 8.0 | 0.00 | 0.00 | 0.00 | 64 | 1014.1 |
| 20260508132919 | 10 | 237 | 3.2 | 6.4 | 0.00 | 0.00 | 0.00 | 65 | 1014.3 |
| 20260508132417 | 10 | 121 | 8.0 | 14.5 | 0.00 | 0.00 | 0.00 | 59 | 1014.0 |
| 20260508131913 | 10 | 180 | 1.6 | 4.8 | 0.00 | 0.00 | 0.00 | 65 | 1014.2 |
| 20260508131408 | 10 | 158 | 1.6 | 4.8 | 0.00 | 0.00 | 0.00 | 70 | 1014.4 |
| 20260508130906 | 8 | 223 | 3.2 | 11.3 | 0.00 | 0.00 | 0.00 | 69 | 1014.3 |
| 20260508130402 | 8 | 238 | 1.6 | 6.4 | 0.00 | 0.00 | 0.00 | 78 | 1014.4 |
| 20260508125858 | 7 | 114 | 3.2 | 4.8 | 0.00 | 0.00 | 0.00 | 86 | 1014.3 |
| 20260508125354 | 7 | 134 | 3.2 | 4.8 | 0.00 | 0.00 | 0.00 | 85 | 1014.2 |
| 20260508124853 | 6 | 156 | 0.0 | 3.2 | 0.00 | 0.00 | 0.00 | 88 | 1014.3 |
| 20260508124350 | 5 | 117 | 1.6 | 3.2 | 0.00 | 0.00 | 0.00 | 87 | 1014.5 |
| 20260508123848 | 5 | 287 | 3.2 | 4.8 | 0.00 | 0.00 | 0.00 | 89 | 1014.4 |
| 20260508123346 | 5 | 250 | 3.2 | 3.2 | 0.00 | 0.00 | 0.00 | 91 | 1014.4 |
| 20260508122842 | 5 | 83 | 1.6 | 4.8 | 0.00 | 0.00 | 0.00 | 92 | 1014.5 |
| 20260508122338 | 5 | 131 | 0.0 | 3.2 | 0.00 | 0.00 | 0.00 | 93 | 1014.6 |
| 20260508121836 | 4 | 84 | 1.6 | 3.2 | 0.00 | 0.00 | 0.00 | 94 | 1014.6 |
| 20260508121334 | 4 | 66 | 3.2 | 3.2 | 0.00 | 0.00 | 0.00 | 94 | 1014.6 |
| 20260508120831 | 4 | 99 | 1.6 | 3.2 | 0.00 | 0.00 | 0.00 | 93 | 1014.6 |
| 20260508120329 | 4 | 180 | 0.0 | 4.8 | 0.00 | 0.00 | 0.00 | 91 | 1014.7 |
| 20260508115826 | 4 | 161 | 1.6 | 3.2 | 0.00 | 0.00 | 0.00 | 90 | 1014.5 |
| 20260508115324 | 4 | 190 | 0.0 | 3.2 | 0.00 | 0.00 | 0.00 | 90 | 1014.7 |
| 20260508114820 | 3 | 149 | 3.2 | 4.8 | 0.00 | 0.00 | 0.00 | 89 | 1014.8 |
| 20260508114318 | 3 | 239 | 0.0 | 3.2 | 0.00 | 0.00 | 0.00 | 91 | 1015.0 |
| 20260508113814 | 3 | 89 | 3.2 | 4.8 | 0.00 | 0.00 | 0.00 | 91 | 1014.8 |
| 20260508113313 | 3 | 197 | 1.6 | 3.2 | 0.00 | 0.00 | 0.00 | 91 | 1014.8 |
| 20260508112808 | 3 | 167 | 1.6 | 4.8 | 0.00 | 0.00 | 0.00 | 91 | 1014.5 |
| 20260508112307 | 3 | 213 | 3.2 | 3.2 | 0.00 | 0.00 | 0.00 | 93 | 1014.6 |
| 20260508111802 | 3 | 158 | 0.0 | 3.2 | 0.00 | 0.00 | 0.00 | 93 | 1014.7 |
| 20260508111259 | 3 | 146 | 3.2 | 3.2 | 0.00 | 0.00 | 0.00 | 94 | 1014.7 |
| 20260508110755 | 3 | 93 | 1.6 | 3.2 | 0.00 | 0.00 | 0.00 | 95 | 1014.8 |
| 20260508110253 | 3 | 152 | 0.0 | 3.2 | 0.00 | 0.00 | 0.00 | 96 | 1014.6 |
| 20260508105753 | 3 | 102 | 0.0 | 3.2 | 0.00 | 0.00 | 0.00 | 96 | 1014.5 |
| 20260508105250 | 3 | 243 | 1.6 | 3.2 | 0.00 | 0.00 | 0.00 | 95 | 1014.6 |
| 20260508104747 | 3 | 155 | 0.0 | 3.2 | 0.00 | 0.00 | 0.00 | 94 | 1014.5 |
| 20260508104244 | 3 | 190 | 0.0 | 3.2 | 0.00 | 0.00 | 0.00 | 93 | 1014.5 |
| 20260508103741 | 2 | 163 | 1.6 | 3.2 | 0.00 | 0.00 | 0.00 | 94 | 1014.3 |
| 20260508103238 | 2 | 280 | 0.0 | 3.2 | 0.00 | 0.00 | 0.00 | 94 | 1014.4 |
| 20260508102735 | 2 | 265 | 0.0 | 3.2 | 0.00 | 0.00 | 0.00 | 94 | 1014.3 |
| 20260508102233 | 2 | 262 | 0.0 | 4.8 | 0.00 | 0.00 | 0.00 | 94 | 1014.2 |
| 20260508101730 | 2 | 319 | 0.0 | 3.2 | 0.00 | 0.00 | 0.00 | 95 | 1014.2 |
| 20260508101228 | 2 | 227 | 0.0 | 3.2 | 0.00 | 0.00 | 0.00 | 95 | 1014.1 |
| 20260508100725 | 2 | 59 | 0.0 | 3.2 | 0.00 | 0.00 | 0.00 | 95 | 1014.3 |
| 20260508100223 | 2 | 262 | 1.6 | 3.2 | 0.00 | 0.00 | 0.00 | 94 | 1014.0 |
| 20260508095719 | 2 | 145 | 1.6 | 3.2 | 0.00 | 0.00 | 0.00 | 94 | 1014.2 |
| 20260508095217 | 2 | 113 | 1.6 | 3.2 | 0.00 | 0.00 | 0.00 | 93 | 1014.2 |
| 20260508094713 | 3 | 100 | 1.6 | 3.2 | 0.00 | 0.00 | 0.00 | 91 | 1014.0 |
| 20260508094210 | 3 | 246 | 0.0 | 3.2 | 0.00 | 0.00 | 0.00 | 91 | 1014.1 |
| 20260508093707 | 2 | 253 | 1.6 | 3.2 | 0.00 | 0.00 | 0.00 | 92 | 1014.0 |
| 20260508093205 | 2 | 297 | 3.2 | 4.8 | 0.00 | 0.00 | 0.00 | 92 | 1014.1 |
| 20260508092702 | 2 | 110 | 3.2 | 3.2 | 0.00 | 0.00 | 0.00 | 93 | 1013.9 |
| 20260508092201 | 3 | 330 | 1.6 | 3.2 | 0.00 | 0.00 | 0.00 | 92 | 1014.0 |
| 20260508091658 | 3 | 290 | 3.2 | 3.2 | 0.00 | 0.00 | 0.00 | 90 | 1014.0 |
| 20260508091155 | 3 | 290 | 3.2 | 4.8 | 0.00 | 0.00 | 0.00 | 91 | 1013.9 |
| 20260508090653 | 3 | 223 | 1.6 | 4.8 | 0.00 | 0.00 | 0.00 | 89 | 1014.0 |
| 20260508090150 | 3 | 262 | 1.6 | 3.2 | 0.00 | 0.00 | 0.00 | 90 | 1014.1 |
| 20260508085645 | 3 | 266 | 3.2 | 4.8 | 0.00 | 0.00 | 0.00 | 93 | 1014.1 |
| 20260508085143 | 2 | 337 | 1.6 | 3.2 | 0.00 | 0.00 | 0.00 | 93 | 1013.8 |
| 20260508084639 | 3 | 264 | 3.2 | 4.8 | 0.00 | 0.00 | 0.00 | 94 | 1014.1 |
| 20260508084136 | 3 | 257 | 0.0 | 3.2 | 0.00 | 0.00 | 0.00 | 94 | 1014.1 |
| 20260508083634 | 3 | 0 | 1.6 | 3.2 | 0.00 | 0.00 | 0.00 | 94 | 1014.0 |
| 20260508083131 | 3 | 306 | 0.0 | 3.2 | 0.00 | 0.00 | 0.00 | 94 | 1014.0 |
| 20260508082626 | 3 | 239 | 3.2 | 4.8 | 0.00 | 0.00 | 0.00 | 94 | 1014.1 |
| 20260508082124 | 3 | 107 | 0.0 | 3.2 | 0.00 | 0.00 | 0.00 | 94 | 1013.9 |
| 20260508081621 | 3 | 214 | 0.0 | 3.2 | 0.00 | 0.00 | 0.00 | 94 | 1013.9 |
| 20260508081117 | 4 | 194 | 1.6 | 3.2 | 0.00 | 0.00 | 0.00 | 90 | 1013.9 |
| 20260508080615 | 4 | 174 | 1.6 | 3.2 | 0.00 | 0.00 | 0.00 | 84 | 1013.9 |
| 20260508080113 | 4 | 242 | 0.0 | 3.2 | 0.00 | 0.00 | 0.00 | 85 | 1014.0 |
| 20260508075608 | 4 | 272 | 1.6 | 3.2 | 0.00 | 0.00 | 0.00 | 87 | 1013.9 |
| 20260508075106 | 4 | 301 | 1.6 | 3.2 | 0.00 | 0.00 | 0.00 | 90 | 1013.9 |
| 20260508074604 | 4 | 180 | 1.6 | 3.2 | 0.00 | 0.00 | 0.00 | 88 | 1013.9 |
| 20260508074100 | 4 | 277 | 0.0 | 4.8 | 0.00 | 0.00 | 0.00 | 90 | 1013.8 |
| 20260508073558 | 3 | 326 | 3.2 | 3.2 | 0.00 | 0.00 | 0.00 | 90 | 1013.8 |
| 20260508073055 | 4 | 275 | 0.0 | 4.8 | 0.00 | 0.00 | 0.00 | 92 | 1013.8 |
| 20260508072550 | 4 | 303 | 1.6 | 3.2 | 0.00 | 0.00 | 0.00 | 92 | 1013.7 |
| 20260508072048 | 4 | 285 | 0.0 | 3.2 | 0.00 | 0.00 | 0.00 | 89 | 1013.8 |
| 20260508071546 | 4 | 258 | 3.2 | 4.8 | 0.00 | 0.00 | 0.00 | 89 | 1013.8 |
| 20260508071044 | 3 | 238 | 0.0 | 3.2 | 0.00 | 0.00 | 0.00 | 92 | 1013.8 |
| 20260508070541 | 3 | 184 | 3.2 | 3.2 | 0.00 | 0.00 | 0.00 | 94 | 1013.9 |
| 20260508070039 | 3 | 259 | 3.2 | 3.2 | 0.00 | 0.00 | 0.00 | 94 | 1014.0 |
| 20260508065536 | 3 | 179 | 0.0 | 3.2 | 0.00 | 0.00 | 0.00 | 93 | 1014.0 |
| 20260508065035 | 3 | 230 | 0.0 | 3.2 | 0.00 | 0.00 | 0.00 | 94 | 1014.1 |
| 20260508064532 | 4 | 139 | 1.6 | 3.2 | 0.00 | 0.00 | 0.00 | 94 | 1013.9 |
| 20260508064030 | 4 | 299 | 0.0 | 3.2 | 0.00 | 0.00 | 0.00 | 93 | 1013.9 |
| 20260508063527 | 4 | 302 | 0.0 | 3.2 | 0.00 | 0.00 | 0.00 | 92 | 1014.0 |
| 20260508063025 | 4 | 262 | 0.0 | 4.8 | 0.00 | 0.00 | 0.00 | 91 | 1014.0 |
| 20260508062517 | 5 | 125 | 0.0 | 3.2 | 0.00 | 0.00 | 0.00 | 91 | 1014.1 |
| 20260508062013 | 4 | 267 | 1.6 | 3.2 | 0.00 | 0.00 | 0.00 | 90 | 1014.1 |
| 20260508061511 | 4 | 265 | 3.2 | 3.2 | 0.00 | 0.00 | 0.00 | 92 | 1014.2 |
| 20260508061007 | 4 | 247 | 1.6 | 3.2 | 0.00 | 0.00 | 0.00 | 95 | 1014.1 |
| 20260508060505 | 4 | 85 | 3.2 | 3.2 | 0.00 | 0.00 | 0.00 | 94 | 1014.2 |
| 20260508060001 | 4 | 317 | 0.0 | 3.2 | 0.00 | 0.00 | 0.00 | 94 | 1014.1 |
| 20260508055458 | 4 | 297 | 1.6 | 3.2 | 0.00 | 0.00 | 0.00 | 95 | 1014.2 |
| 20260508054954 | 4 | 260 | 1.6 | 4.8 | 0.00 | 0.00 | 0.00 | 96 | 1014.4 |
| 20260508054451 | 4 | 310 | 0.0 | 3.2 | 0.00 | 0.00 | 0.00 | 95 | 1014.2 |
| 20260508053948 | 4 | 286 | 0.0 | 3.2 | 0.00 | 0.00 | 0.00 | 95 | 1014.3 |
| 20260508053445 | 5 | 302 | 3.2 | 3.2 | 0.00 | 0.00 | 0.00 | 94 | 1014.3 |
| 20260508052943 | 5 | 245 | 0.0 | 3.2 | 0.00 | 0.00 | 0.00 | 94 | 1014.2 |
| 20260508052440 | 5 | 303 | 1.6 | 3.2 | 0.00 | 0.00 | 0.00 | 95 | 1014.4 |
| 20260508051936 | 5 | 237 | 0.0 | 3.2 | 0.00 | 0.00 | 0.00 | 94 | 1014.4 |
| 20260508051431 | 5 | 234 | 0.0 | 3.2 | 0.00 | 0.00 | 0.00 | 95 | 1014.2 |
| 20260508050928 | 5 | 276 | 3.2 | 3.2 | 0.00 | 0.00 | 0.00 | 95 | 1014.3 |
| 20260508050424 | 5 | 316 | 0.0 | 3.2 | 0.00 | 0.00 | 0.00 | 95 | 1014.2 |
| 20260508045920 | 5 | 263 | 1.6 | 3.2 | 0.00 | 0.00 | 0.00 | 95 | 1014.3 |
| 20260508045419 | 5 | 283 | 0.0 | 3.2 | 0.00 | 0.00 | 0.00 | 95 | 1014.2 |
| 20260508044916 | 5 | 230 | 1.6 | 3.2 | 0.00 | 0.00 | 0.00 | 94 | 1014.2 |
| 20260508044413 | 5 | 264 | 0.0 | 3.2 | 0.00 | 0.00 | 0.00 | 94 | 1014.1 |